Weather Roundup
Issued by NWS Springfield, MO

Home | Current Version | Previous Version | Text Only | Print | Product List | Glossary On
Versions: 1 2 3 4 5 6 7 8 9 10 11 12 13 14 15 16 17 18 19 20 21 22 23 24 25 26 27 28 29 30 31 32 33 34 35 36 37 38 39 40 41 42 43 44 45 46 47 48 49 50
000
NZUS99 KSGF 270259
HRRSGF

HOURLY WEATHER
NATIONAL WEATHER SERVICE SPRINGFIELD MO
1000 PM CDT TUE MAY 26 2015

......SGF CWA......

CITY           SKY/WX    TMP DP  RH WIND       PRES   REMARKS
SPRINGFIELD    CLOUDY    69  62  78 S6        30.00R
JOPLIN         PTCLDY    68  63  84 NW5       30.00R
WEST PLAINS    PTCLDY    69  61  75 S7        30.05R
ROLLA          CLEAR     68  61  78 S9        29.98R
OSAGE BEACH    PTCLDY    70  61  73 S6        29.98R

......SURROUNDING SGF CWA......

CITY           SKY/WX    TMP DP  RH WIND       PRES   REMARKS
CHANUTE        CLOUDY    70  65  84 SW10      29.97R
PARSONS        CLOUDY    68  66  93 CALM      29.98S
COFFEYVILLE    CLOUDY    68  65  90 CALM      29.96F
EMPORIA        MOCLDY    63  58  83 S8        29.96R
SILOAM SPRINGS MOCLDY    66  59  77 SE5       30.02R
HARRISON AR    CLEAR     68  62  81 SE9       30.03R
NEAR YELLVILLE FAIR      70  63  78 CALM      30.01R

......KANSAS AND MISSOURI......

CITY           SKY/WX    TMP DP  RH WIND       PRES   REMARKS
KANSAS CTY INT PTCLDY    67  60  78 W5        29.92R
DOWNTOWN KC    MOCLDY    73  59  61 W5        29.91R
COLUMBIA       CLEAR     67  61  81 S8        29.95R
SEDALIA        PTCLDY    70  61  73 S8        29.95R
ST JOSEPH      PTCLDY    65  59  81 N8        29.91R
ST LOUIS       PTCLDY    74  60  61 S9        29.96R
SPIRIT OF STL  CLEAR    N/A N/A N/A S9        29.95R
WICHITA        MOCLDY    68  62  81 SE9       29.97R
TOPEKA         PTCLDY    68  60  75 CALM      29.93R
OLATHE         CLOUDY    71  61  70 SW6       29.93R

......TENNESSEE......

CITY           SKY/WX    TMP DP  RH WIND       PRES   REMARKS
MEMPHIS        PTCLDY    73  65  75 S5        30.09R
NASHVILLE      PTCLDY    69  67  93 S6        30.11R

......ARKANSAS.......

CITY           SKY/WX    TMP DP  RH WIND       PRES   REMARKS
FAYETTEVILLE   MOCLDY    65  64  97 SE3       30.02R
FT SMITH       CLOUDY    76  67  73 SE3       29.99R
LITTLE ROCK    MOCLDY    72  65  78 CALM      30.06S

......OKLAHOMA.......

CITY           SKY/WX    TMP DP  RH WIND       PRES   REMARKS
TULSA          CLOUDY    73  67  81 NW5       29.95S THUNDER
PONCA CITY     CLOUDY    71  64  78 E3        29.95F
MCALESTER      CLOUDY    74  69  85 S3        29.97F
OKLAHOMA CITY  MOCLDY    71  68  90 S10       29.94F

......IOWA............

CITY           SKY/WX    TMP DP  RH WIND       PRES   REMARKS
DES MOINES     MOCLDY    63  59  87 W7        29.85R
QUAD CITIES    PTCLDY    65  61  87 SW5       29.82R

......ILLINOIS........

CITY           SKY/WX    TMP DP  RH WIND       PRES   REMARKS
QUINCY         CLEAR     70  61  73 SW9       29.89R
CHICAGO        PTCLDY    67  60  78 S8        29.84R




USA.gov is the U.S. government's official web portal to all federal, state and local government web resources and services.